| time (UTC) | temp F | wind direction | speed MPH | gust MPH | rain 1hr in | rain 24hr in | rain mn in | humidity % | barometer mb |
| 20260506232203 | 52 | 3 | 3.0 | 10.0 | 0.00 | 0.00 | 0.00 | 38 | 1012.7 |
| 20260506232003 | 52 | 4 | 3.0 | 10.0 | 0.00 | 0.00 | 0.00 | 40 | 1012.7 |
| 20260506231803 | 52 | 4 | 4.0 | 10.0 | 0.00 | 0.00 | 0.00 | 40 | 1012.8 |
| 20260506231603 | 52 | 5 | 4.0 | 10.0 | 0.00 | 0.00 | 0.00 | 40 | 1012.8 |
| 20260506231403 | 52 | 5 | 4.0 | 10.0 | 0.00 | 0.00 | 0.00 | 34 | 1012.8 |
| 20260506231203 | 52 | 9 | 4.0 | 10.0 | 0.00 | 0.00 | 0.00 | 37 | 1012.8 |
| 20260506231003 | 52 | 6 | 5.0 | 11.0 | 0.00 | 0.00 | 0.00 | 40 | 1012.8 |
| 20260506230803 | 52 | 5 | 5.0 | 11.0 | 0.00 | 0.00 | 0.00 | 37 | 1012.8 |
| 20260506230603 | 52 | 359 | 5.0 | 11.0 | 0.00 | 0.00 | 0.00 | 38 | 1012.8 |
| 20260506230403 | 52 | 358 | 5.0 | 11.0 | 0.00 | 0.00 | 0.00 | 37 | 1012.8 |
| 20260506230003 | 52 | 6 | 5.0 | 9.0 | 0.00 | 0.00 | 0.00 | 36 | 1012.8 |
| 20260506225803 | 52 | 20 | 5.0 | 11.0 | 0.00 | 0.00 | 0.00 | 33 | 1012.7 |
| 20260506225603 | 52 | 33 | 5.0 | 11.0 | 0.00 | 0.00 | 0.00 | 36 | 1012.9 |
| 20260506225403 | 53 | 47 | 5.0 | 11.0 | 0.00 | 0.00 | 0.00 | 35 | 1012.9 |
| 20260506225203 | 53 | 49 | 5.0 | 11.0 | 0.00 | 0.00 | 0.00 | 35 | 1012.8 |
| 20260506225024 | 53 | 48 | 5.0 | 11.0 | 0.00 | 0.00 | 0.00 | 34 | 1012.8 |
| 20260506224803 | 53 | 33 | 4.0 | 11.0 | 0.00 | 0.00 | 0.00 | 38 | 1012.7 |
| 20260506224603 | 53 | 25 | 4.0 | 11.0 | 0.00 | 0.00 | 0.00 | 33 | 1012.7 |
| 20260506224424 | 53 | 7 | 4.0 | 7.0 | 0.00 | 0.00 | 0.00 | 33 | 1012.7 |
| 20260506224203 | 54 | 1 | 4.0 | 7.0 | 0.00 | 0.00 | 0.00 | 31 | 1012.7 |
| 20260506224003 | 54 | 357 | 4.0 | 8.0 | 0.00 | 0.00 | 0.00 | 36 | 1012.7 |
| 20260506223803 | 53 | 358 | 4.0 | 8.0 | 0.00 | 0.00 | 0.00 | 32 | 1012.7 |
| 20260506223603 | 53 | 1 | 5.0 | 9.0 | 0.00 | 0.00 | 0.00 | 30 | 1012.7 |
| 20260506223403 | 53 | 2 | 5.0 | 13.0 | 0.00 | 0.00 | 0.00 | 31 | 1012.7 |
| 20260506223204 | 53 | 6 | 6.0 | 13.0 | 0.00 | 0.00 | 0.00 | 34 | 1012.8 |
| 20260506223024 | 53 | 7 | 6.0 | 13.0 | 0.00 | 0.00 | 0.00 | 35 | 1012.8 |
| 20260506222803 | 54 | 4 | 5.0 | 13.0 | 0.00 | 0.00 | 0.00 | 35 | 1012.8 |
| 20260506222624 | 54 | 3 | 5.0 | 13.0 | 0.00 | 0.00 | 0.00 | 33 | 1012.8 |
| 20260506222403 | 54 | 9 | 5.0 | 9.0 | 0.00 | 0.00 | 0.00 | 35 | 1012.7 |
| 20260506222224 | 54 | 9 | 5.0 | 9.0 | 0.00 | 0.00 | 0.00 | 33 | 1012.7 |
| 20260506222003 | 53 | 19 | 5.0 | 9.0 | 0.00 | 0.00 | 0.00 | 34 | 1012.7 |
| 20260506221803 | 53 | 26 | 5.0 | 9.0 | 0.00 | 0.00 | 0.00 | 35 | 1012.7 |
| 20260506221603 | 53 | 37 | 5.0 | 10.0 | 0.00 | 0.00 | 0.00 | 31 | 1012.7 |
| 20260506221403 | 54 | 50 | 5.0 | 10.0 | 0.00 | 0.00 | 0.00 | 33 | 1012.7 |
| 20260506221203 | 54 | 51 | 5.0 | 10.0 | 0.00 | 0.00 | 0.00 | 35 | 1012.8 |
| 20260506221003 | 53 | 45 | 6.0 | 10.0 | 0.00 | 0.00 | 0.00 | 36 | 1012.9 |
| 20260506220803 | 53 | 34 | 6.0 | 14.0 | 0.00 | 0.00 | 0.00 | 32 | 1012.9 |
| 20260506220624 | 53 | 26 | 6.0 | 14.0 | 0.00 | 0.00 | 0.00 | 34 | 1012.9 |
| 20260506220424 | 54 | 21 | 6.0 | 14.0 | 0.00 | 0.00 | 0.00 | 33 | 1012.7 |
| 20260506220203 | 54 | 22 | 6.0 | 14.0 | 0.00 | 0.00 | 0.00 | 32 | 1012.8 |
| 20260506220003 | 54 | 25 | 5.0 | 14.0 | 0.00 | 0.00 | 0.00 | 32 | 1012.8 |
| 20260506215803 | 54 | 38 | 4.0 | 11.0 | 0.00 | 0.00 | 0.00 | 34 | 1012.7 |
| 20260506215603 | 54 | 35 | 4.0 | 10.0 | 0.00 | 0.00 | 0.00 | 36 | 1012.7 |
| 20260506215403 | 54 | 24 | 4.0 | 10.0 | 0.00 | 0.00 | 0.00 | 35 | 1012.7 |
| 20260506215203 | 53 | 24 | 4.0 | 10.0 | 0.00 | 0.00 | 0.00 | 35 | 1012.8 |
| 20260506215003 | 53 | 38 | 5.0 | 13.0 | 0.00 | 0.00 | 0.00 | 35 | 1012.9 |
| 20260506214803 | 53 | 37 | 5.0 | 13.0 | 0.00 | 0.00 | 0.00 | 33 | 1012.9 |
| 20260506214603 | 53 | 40 | 5.0 | 13.0 | 0.00 | 0.00 | 0.00 | 36 | 1012.9 |
| 20260506214424 | 53 | 42 | 5.0 | 13.0 | 0.00 | 0.00 | 0.00 | 35 | 1012.9 |
| 20260506214203 | 53 | 52 | 5.0 | 13.0 | 0.00 | 0.00 | 0.00 | 30 | 1012.9 |
| 20260506214024 | 53 | 47 | 5.0 | 9.0 | 0.00 | 0.00 | 0.00 | 31 | 1012.8 |
| 20260506213824 | 53 | 44 | 5.0 | 8.0 | 0.00 | 0.00 | 0.00 | 34 | 1012.9 |
| 20260506213624 | 53 | 53 | 5.0 | 11.0 | 0.00 | 0.00 | 0.00 | 36 | 1012.9 |
| 20260506213403 | 53 | 63 | 6.0 | 11.0 | 0.00 | 0.00 | 0.00 | 34 | 1012.8 |
| 20260506213203 | 53 | 64 | 6.0 | 13.0 | 0.00 | 0.00 | 0.00 | 36 | 1012.9 |
| 20260506213003 | 53 | 63 | 6.0 | 13.0 | 0.00 | 0.00 | 0.00 | 33 | 1012.8 |
| 20260506212803 | 53 | 63 | 6.0 | 13.0 | 0.00 | 0.00 | 0.00 | 32 | 1012.8 |
| 20260506212603 | 54 | 58 | 6.0 | 13.0 | 0.00 | 0.00 | 0.00 | 32 | 1012.9 |
| 20260506212403 | 54 | 53 | 6.0 | 13.0 | 0.00 | 0.00 | 0.00 | 34 | 1012.8 |
| 20260506212203 | 54 | 44 | 6.0 | 10.0 | 0.00 | 0.00 | 0.00 | 31 | 1012.9 |
| 20260506212003 | 55 | 41 | 5.0 | 9.0 | 0.00 | 0.00 | 0.00 | 32 | 1012.9 |
| 20260506211803 | 55 | 27 | 5.0 | 9.0 | 0.00 | 0.00 | 0.00 | 32 | 1012.8 |
| 20260506211603 | 55 | 14 | 5.0 | 9.0 | 0.00 | 0.00 | 0.00 | 32 | 1012.8 |
| 20260506211403 | 55 | 7 | 5.0 | 9.0 | 0.00 | 0.00 | 0.00 | 34 | 1012.8 |
| 20260506211203 | 55 | 9 | 5.0 | 9.0 | 0.00 | 0.00 | 0.00 | 32 | 1012.8 |
| 20260506211003 | 54 | 14 | 5.0 | 10.0 | 0.00 | 0.00 | 0.00 | 35 | 1012.8 |
| 20260506210803 | 54 | 20 | 6.0 | 12.0 | 0.00 | 0.00 | 0.00 | 32 | 1012.7 |
| 20260506210603 | 54 | 25 | 6.0 | 12.0 | 0.00 | 0.00 | 0.00 | 34 | 1012.8 |
| 20260506210403 | 54 | 22 | 7.0 | 12.0 | 0.00 | 0.00 | 0.00 | 32 | 1012.9 |
| 20260506210224 | 54 | 16 | 7.0 | 16.0 | 0.00 | 0.00 | 0.00 | 31 | 1012.8 |
| 20260506210003 | 55 | 5 | 7.0 | 16.0 | 0.00 | 0.00 | 0.00 | 30 | 1012.9 |
| 20260506205803 | 55 | 7 | 7.0 | 16.0 | 0.00 | 0.00 | 0.00 | 34 | 1012.9 |
| 20260506205603 | 55 | 7 | 7.0 | 16.0 | 0.00 | 0.00 | 0.00 | 30 | 1012.8 |
| 20260506205403 | 55 | 4 | 7.0 | 16.0 | 0.00 | 0.00 | 0.00 | 31 | 1012.8 |
| 20260506205203 | 54 | 6 | 7.0 | 15.0 | 0.00 | 0.00 | 0.00 | 35 | 1012.8 |
| 20260506205003 | 54 | 11 | 7.0 | 15.0 | 0.00 | 0.00 | 0.00 | 34 | 1012.7 |
| 20260506204803 | 54 | 8 | 8.0 | 13.0 | 0.00 | 0.00 | 0.00 | 32 | 1012.9 |
| 20260506204603 | 53 | 11 | 8.0 | 13.0 | 0.00 | 0.00 | 0.00 | 32 | 1012.8 |
| 20260506204403 | 53 | 17 | 7.0 | 13.0 | 0.00 | 0.00 | 0.00 | 35 | 1012.9 |
| 20260506204203 | 53 | 33 | 6.0 | 13.0 | 0.00 | 0.00 | 0.00 | 33 | 1012.8 |
| 20260506204003 | 54 | 45 | 6.0 | 13.0 | 0.00 | 0.00 | 0.00 | 30 | 1012.9 |
| 20260506203803 | 54 | 59 | 5.0 | 13.0 | 0.00 | 0.00 | 0.00 | 34 | 1012.8 |
| 20260506203624 | 53 | 53 | 5.0 | 13.0 | 0.00 | 0.00 | 0.00 | 32 | 1012.8 |
| 20260506203403 | 53 | 42 | 6.0 | 13.0 | 0.00 | 0.00 | 0.00 | 30 | 1012.8 |
| 20260506203203 | 53 | 22 | 7.0 | 13.0 | 0.00 | 0.00 | 0.00 | 33 | 1012.8 |
| 20260506203024 | 54 | 13 | 7.0 | 13.0 | 0.00 | 0.00 | 0.00 | 32 | 1012.9 |
| 20260506202803 | 54 | 359 | 7.0 | 13.0 | 0.00 | 0.00 | 0.00 | 31 | 1012.9 |
| 20260506202603 | 54 | 356 | 6.0 | 13.0 | 0.00 | 0.00 | 0.00 | 30 | 1013.0 |
| 20260506202424 | 54 | 349 | 6.0 | 13.0 | 0.00 | 0.00 | 0.00 | 32 | 1013.0 |
| 20260506202203 | 54 | 341 | 5.0 | 9.0 | 0.00 | 0.00 | 0.00 | 32 | 1012.9 |
| 20260506202003 | 54 | 343 | 5.0 | 10.0 | 0.00 | 0.00 | 0.00 | 28 | 1012.9 |
| 20260506201803 | 54 | 347 | 5.0 | 12.0 | 0.00 | 0.00 | 0.00 | 33 | 1012.9 |
| 20260506201603 | 54 | 357 | 5.0 | 12.0 | 0.00 | 0.00 | 0.00 | 29 | 1012.9 |
| 20260506201403 | 54 | 2 | 5.0 | 12.0 | 0.00 | 0.00 | 0.00 | 31 | 1013.0 |
| 20260506201203 | 54 | 5 | 6.0 | 12.0 | 0.00 | 0.00 | 0.00 | 31 | 1013.0 |
| 20260506201003 | 54 | 6 | 6.0 | 12.0 | 0.00 | 0.00 | 0.00 | 31 | 1013.0 |
| 20260506200824 | 55 | 8 | 6.0 | 12.0 | 0.00 | 0.00 | 0.00 | 35 | 1012.9 |
| 20260506200603 | 55 | 1 | 6.0 | 12.0 | 0.00 | 0.00 | 0.00 | 31 | 1012.9 |
| 20260506200424 | 54 | 360 | 6.0 | 12.0 | 0.00 | 0.00 | 0.00 | 31 | 1013.0 |
| 20260506200203 | 54 | 2 | 6.0 | 12.0 | 0.00 | 0.00 | 0.00 | 33 | 1012.9 |
| 20260506200024 | 54 | 5 | 7.0 | 12.0 | 0.00 | 0.00 | 0.00 | 31 | 1012.9 |
| 20260506195803 | 54 | 7 | 8.0 | 12.0 | 0.00 | 0.00 | 0.00 | 28 | 1012.9 |
| 20260506195603 | 54 | 14 | 7.0 | 13.0 | 0.00 | 0.00 | 0.00 | 32 | 1013.0 |
| 20260506195424 | 55 | 21 | 7.0 | 13.0 | 0.00 | 0.00 | 0.00 | 35 | 1013.0 |
| 20260506195203 | 56 | 21 | 6.0 | 13.0 | 0.00 | 0.00 | 0.00 | 32 | 1013.0 |
| 20260506195003 | 56 | 14 | 6.0 | 13.0 | 0.00 | 0.00 | 0.00 | 34 | 1013.0 |
| 20260506194803 | 55 | 14 | 5.0 | 13.0 | 0.00 | 0.00 | 0.00 | 33 | 1013.0 |
| 20260506194603 | 55 | 7 | 6.0 | 10.0 | 0.00 | 0.00 | 0.00 | 34 | 1012.9 |
| 20260506194403 | 55 | 1 | 6.0 | 13.0 | 0.00 | 0.00 | 0.00 | 35 | 1012.9 |
| 20260506194203 | 54 | 4 | 6.0 | 13.0 | 0.00 | 0.00 | 0.00 | 30 | 1012.9 |
| 20260506194003 | 54 | 10 | 6.0 | 13.0 | 0.00 | 0.00 | 0.00 | 31 | 1012.9 |
| 20260506193803 | 54 | 10 | 5.0 | 13.0 | 0.00 | 0.00 | 0.00 | 30 | 1012.9 |
| 20260506193603 | 54 | 10 | 5.0 | 13.0 | 0.00 | 0.00 | 0.00 | 32 | 1012.9 |
| 20260506193424 | 55 | 10 | 4.0 | 13.0 | 0.00 | 0.00 | 0.00 | 36 | 1012.9 |
| 20260506193203 | 54 | 7 | 4.0 | 13.0 | 0.00 | 0.00 | 0.00 | 36 | 1012.8 |
| 20260506193003 | 54 | 14 | 4.0 | 9.0 | 0.00 | 0.00 | 0.00 | 34 | 1012.8 |
| 20260506192803 | 54 | 25 | 4.0 | 10.0 | 0.00 | 0.00 | 0.00 | 32 | 1012.7 |
| 20260506192603 | 54 | 15 | 5.0 | 10.0 | 0.00 | 0.00 | 0.00 | 31 | 1012.8 |
| 20260506192403 | 54 | 357 | 5.0 | 10.0 | 0.00 | 0.00 | 0.00 | 32 | 1012.8 |
| 20260506192203 | 55 | 353 | 5.0 | 10.0 | 0.00 | 0.00 | 0.00 | 34 | 1012.8 |
| 20260506192003 | 55 | 347 | 5.0 | 10.0 | 0.00 | 0.00 | 0.00 | 35 | 1012.8 |
| 20260506191803 | 55 | 343 | 4.0 | 10.0 | 0.00 | 0.00 | 0.00 | 31 | 1012.7 |
| 20260506191603 | 55 | 351 | 5.0 | 10.0 | 0.00 | 0.00 | 0.00 | 32 | 1012.7 |
| 20260506191403 | 55 | 359 | 5.0 | 10.0 | 0.00 | 0.00 | 0.00 | 32 | 1012.9 |
| 20260506191224 | 55 | 359 | 5.0 | 10.0 | 0.00 | 0.00 | 0.00 | 36 | 1012.9 |
| 20260506191003 | 55 | 348 | 5.0 | 10.0 | 0.00 | 0.00 | 0.00 | 37 | 1012.9 |
| 20260506190803 | 55 | 343 | 5.0 | 10.0 | 0.00 | 0.00 | 0.00 | 33 | 1013.0 |
| 20260506190603 | 56 | 337 | 5.0 | 10.0 | 0.00 | 0.00 | 0.00 | 32 | 1013.0 |
| 20260506190403 | 56 | 339 | 5.0 | 9.0 | 0.00 | 0.00 | 0.00 | 32 | 1013.0 |
| 20260506190203 | 55 | 344 | 4.0 | 9.0 | 0.00 | 0.00 | 0.00 | 33 | 1013.0 |
| 20260506190024 | 55 | 349 | 4.0 | 8.0 | 0.00 | 0.00 | 0.00 | 32 | 1013.0 |
| 20260506185803 | 55 | 349 | 4.0 | 11.0 | 0.00 | 0.00 | 0.00 | 34 | 1013.0 |
| 20260506185603 | 55 | 350 | 5.0 | 13.0 | 0.00 | 0.00 | 0.00 | 34 | 1013.0 |
| 20260506185403 | 55 | 352 | 5.0 | 13.0 | 0.00 | 0.00 | 0.00 | 36 | 1013.0 |
| 20260506185203 | 55 | 349 | 5.0 | 13.0 | 0.00 | 0.00 | 0.00 | 32 | 1013.0 |
| 20260506185003 | 54 | 350 | 4.0 | 13.0 | 0.00 | 0.00 | 0.00 | 33 | 1013.0 |
| 20260506184824 | 54 | 352 | 4.0 | 13.0 | 0.00 | 0.00 | 0.00 | 31 | 1013.1 |
| 20260506184603 | 54 | 359 | 3.0 | 8.0 | 0.00 | 0.00 | 0.00 | 35 | 1013.0 |
| 20260506184403 | 54 | 12 | 4.0 | 10.0 | 0.00 | 0.00 | 0.00 | 33 | 1013.0 |
| 20260506184203 | 54 | 31 | 5.0 | 12.0 | 0.00 | 0.00 | 0.00 | 31 | 1013.0 |
| 20260506184003 | 54 | 42 | 4.0 | 12.0 | 0.00 | 0.00 | 0.00 | 31 | 1013.0 |
| 20260506183803 | 54 | 52 | 4.0 | 12.0 | 0.00 | 0.00 | 0.00 | 33 | 1013.1 |
| 20260506183603 | 54 | 67 | 4.0 | 12.0 | 0.00 | 0.00 | 0.00 | 36 | 1013.0 |
| 20260506183403 | 54 | 62 | 3.0 | 12.0 | 0.00 | 0.00 | 0.00 | 35 | 1013.0 |
| 20260506183203 | 54 | 42 | 3.0 | 8.0 | 0.00 | 0.00 | 0.00 | 33 | 1013.0 |
| 20260506183003 | 54 | 29 | 4.0 | 9.0 | 0.00 | 0.00 | 0.00 | 33 | 1013.0 |
| 20260506182803 | 54 | 26 | 4.0 | 9.0 | 0.00 | 0.00 | 0.00 | 33 | 1013.1 |
| 20260506182603 | 54 | 30 | 5.0 | 9.0 | 0.00 | 0.00 | 0.00 | 31 | 1013.2 |
| 20260506182403 | 54 | 48 | 5.0 | 9.0 | 0.00 | 0.00 | 0.00 | 37 | 1013.2 |
| 20260506182203 | 53 | 51 | 5.0 | 9.0 | 0.00 | 0.00 | 0.00 | 36 | 1013.2 |
| 20260506182003 | 53 | 56 | 4.0 | 9.0 | 0.00 | 0.00 | 0.00 | 35 | 1013.1 |
| 20260506181803 | 54 | 61 | 4.0 | 9.0 | 0.00 | 0.00 | 0.00 | 37 | 1013.1 |
| 20260506181624 | 54 | 61 | 4.0 | 9.0 | 0.00 | 0.00 | 0.00 | 34 | 1013.1 |
| 20260506181403 | 54 | 45 | 4.0 | 9.0 | 0.00 | 0.00 | 0.00 | 37 | 1013.0 |
| 20260506181203 | 53 | 57 | 3.0 | 10.0 | 0.00 | 0.00 | 0.00 | 34 | 1013.1 |
| 20260506181024 | 53 | 62 | 3.0 | 10.0 | 0.00 | 0.00 | 0.00 | 33 | 1013.1 |
| 20260506180824 | 53 | 63 | 2.0 | 10.0 | 0.00 | 0.00 | 0.00 | 32 | 1013.1 |
| 20260506180603 | 53 | 50 | 2.0 | 10.0 | 0.00 | 0.00 | 0.00 | 35 | 1013.1 |
| 20260506180424 | 52 | 30 | 2.0 | 10.0 | 0.00 | 0.00 | 0.00 | 33 | 1013.0 |
| 20260506180203 | 52 | 360 | 2.0 | 7.0 | 0.00 | 0.00 | 0.00 | 32 | 1013.0 |
| 20260506180004 | 52 | 360 | 2.0 | 7.0 | 0.00 | 0.00 | 0.00 | 30 | 1013.0 |
| 20260506175803 | 52 | 10 | 4.0 | 9.0 | 0.00 | 0.00 | 0.00 | 30 | 1013.0 |
| 20260506175603 | 53 | 15 | 4.0 | 9.0 | 0.00 | 0.00 | 0.00 | 31 | 1013.0 |
| 20260506175403 | 53 | 26 | 4.0 | 9.0 | 0.00 | 0.00 | 0.00 | 33 | 1012.9 |
| 20260506175203 | 52 | 28 | 4.0 | 9.0 | 0.00 | 0.00 | 0.00 | 33 | 1012.9 |
| 20260506175024 | 52 | 30 | 4.0 | 9.0 | 0.00 | 0.00 | 0.00 | 36 | 1012.9 |
| 20260506174803 | 52 | 41 | 4.0 | 9.0 | 0.00 | 0.00 | 0.00 | 32 | 1012.9 |
| 20260506174603 | 52 | 57 | 4.0 | 10.0 | 0.00 | 0.00 | 0.00 | 34 | 1012.9 |
| 20260506174424 | 52 | 67 | 4.0 | 10.0 | 0.00 | 0.00 | 0.00 | 35 | 1012.9 |
| 20260506174203 | 52 | 86 | 5.0 | 10.0 | 0.00 | 0.00 | 0.00 | 36 | 1013.0 |
| 20260506174003 | 52 | 92 | 5.0 | 11.0 | 0.00 | 0.00 | 0.00 | 34 | 1013.0 |
| 20260506173803 | 52 | 95 | 6.0 | 11.0 | 0.00 | 0.00 | 0.00 | 32 | 1013.0 |
| 20260506173603 | 52 | 89 | 5.0 | 11.0 | 0.00 | 0.00 | 0.00 | 32 | 1013.0 |
| 20260506173403 | 52 | 80 | 5.0 | 11.0 | 0.00 | 0.00 | 0.00 | 32 | 1013.0 |
| 20260506173224 | 52 | 76 | 5.0 | 11.0 | 0.00 | 0.00 | 0.00 | 30 | 1013.0 |
| 20260506173004 | 53 | 59 | 3.0 | 9.0 | 0.00 | 0.00 | 0.00 | 32 | 1013.0 |
| 20260506172824 | 53 | 46 | 3.0 | 9.0 | 0.00 | 0.00 | 0.00 | 34 | 1013.0 |
| 20260506172603 | 53 | 20 | 3.0 | 9.0 | 0.00 | 0.00 | 0.00 | 34 | 1013.0 |
| 20260506172403 | 53 | 15 | 3.0 | 14.0 | 0.00 | 0.00 | 0.00 | 32 | 1013.0 |
| 20260506172203 | 54 | 11 | 4.0 | 14.0 | 0.00 | 0.00 | 0.00 | 33 | 1013.0 |
| 20260506172004 | 54 | 8 | 4.0 | 14.0 | 0.00 | 0.00 | 0.00 | 32 | 1013.0 |
| 20260506171803 | 53 | 8 | 4.0 | 14.0 | 0.00 | 0.00 | 0.00 | 33 | 1013.2 |
| 20260506171603 | 53 | 16 | 3.0 | 14.0 | 0.00 | 0.00 | 0.00 | 37 | 1013.2 |
| 20260506171403 | 53 | 15 | 3.0 | 14.0 | 0.00 | 0.00 | 0.00 | 35 | 1013.2 |
| 20260506171203 | 53 | 42 | 3.0 | 8.0 | 0.00 | 0.00 | 0.00 | 31 | 1013.1 |
| 20260506171024 | 53 | 71 | 3.0 | 8.0 | 0.00 | 0.00 | 0.00 | 32 | 1013.1 |
| 20260506170803 | 52 | 85 | 4.0 | 10.0 | 0.00 | 0.00 | 0.00 | 35 | 1013.2 |
| 20260506170603 | 52 | 84 | 5.0 | 10.0 | 0.00 | 0.00 | 0.00 | 33 | 1013.2 |
| 20260506170403 | 52 | 85 | 5.0 | 10.0 | 0.00 | 0.00 | 0.00 | 30 | 1013.3 |
| 20260506170203 | 52 | 78 | 5.0 | 10.0 | 0.00 | 0.00 | 0.00 | 30 | 1013.2 |
| 20260506170003 | 53 | 65 | 5.0 | 10.0 | 0.00 | 0.00 | 0.00 | 33 | 1013.3 |
| 20260506165824 | 53 | 59 | 5.0 | 10.0 | 0.00 | 0.00 | 0.00 | 34 | 1013.3 |
| 20260506165603 | 53 | 59 | 4.0 | 10.0 | 0.00 | 0.00 | 0.00 | 38 | 1013.3 |
| 20260506165424 | 53 | 60 | 4.0 | 10.0 | 0.00 | 0.00 | 0.00 | 33 | 1013.4 |
| 20260506165203 | 53 | 48 | 3.0 | 10.0 | 0.00 | 0.00 | 0.00 | 38 | 1013.3 |
| 20260506165003 | 53 | 51 | 3.0 | 7.0 | 0.00 | 0.00 | 0.00 | 34 | 1013.3 |
| 20260506164804 | 53 | 29 | 3.0 | 8.0 | 0.00 | 0.00 | 0.00 | 33 | 1013.3 |
| 20260506164603 | 53 | 11 | 4.0 | 8.0 | 0.00 | 0.00 | 0.00 | 33 | 1013.3 |
| 20260506164424 | 52 | 3 | 4.0 | 8.0 | 0.00 | 0.00 | 0.00 | 33 | 1013.4 |
| 20260506164203 | 52 | 357 | 4.0 | 8.0 | 0.00 | 0.00 | 0.00 | 37 | 1013.4 |
| 20260506164003 | 52 | 351 | 5.0 | 8.0 | 0.00 | 0.00 | 0.00 | 32 | 1013.3 |
| 20260506163803 | 52 | 2 | 5.0 | 8.0 | 0.00 | 0.00 | 0.00 | 34 | 1013.4 |
| 20260506163603 | 52 | 18 | 4.0 | 7.0 | 0.00 | 0.00 | 0.00 | 34 | 1013.4 |
| 20260506163403 | 52 | 28 | 4.0 | 7.0 | 0.00 | 0.00 | 0.00 | 32 | 1013.5 |
| 20260506163203 | 52 | 55 | 3.0 | 7.0 | 0.00 | 0.00 | 0.00 | 34 | 1013.5 |
| 20260506163003 | 52 | 73 | 3.0 | 7.0 | 0.00 | 0.00 | 0.00 | 33 | 1013.5 |
| 20260506162803 | 52 | 96 | 3.0 | 7.0 | 0.00 | 0.00 | 0.00 | 36 | 1013.5 |
| 20260506162603 | 52 | 102 | 3.0 | 8.0 | 0.00 | 0.00 | 0.00 | 32 | 1013.5 |
| 20260506162403 | 52 | 90 | 3.0 | 9.0 | 0.00 | 0.00 | 0.00 | 34 | 1013.4 |
| 20260506162203 | 52 | 89 | 3.0 | 9.0 | 0.00 | 0.00 | 0.00 | 34 | 1013.4 |
| 20260506162003 | 52 | 89 | 3.0 | 9.0 | 0.00 | 0.00 | 0.00 | 33 | 1013.4 |
| 20260506161803 | 52 | 76 | 3.0 | 9.0 | 0.00 | 0.00 | 0.00 | 33 | 1013.3 |
| 20260506161624 | 52 | 52 | 2.0 | 9.0 | 0.00 | 0.00 | 0.00 | 35 | 1013.4 |
| 20260506161403 | 52 | 13 | 2.0 | 10.0 | 0.00 | 0.00 | 0.00 | 36 | 1013.4 |
| 20260506161224 | 51 | 12 | 3.0 | 10.0 | 0.00 | 0.00 | 0.00 | 35 | 1013.4 |
| 20260506161003 | 51 | 17 | 3.0 | 10.0 | 0.00 | 0.00 | 0.00 | 33 | 1013.4 |
| 20260506160803 | 51 | 21 | 4.0 | 10.0 | 0.00 | 0.00 | 0.00 | 34 | 1013.4 |
| 20260506160603 | 51 | 25 | 4.0 | 9.0 | 0.00 | 0.00 | 0.00 | 31 | 1013.4 |
| 20260506160403 | 51 | 25 | 4.0 | 10.0 | 0.00 | 0.00 | 0.00 | 37 | 1013.4 |
| 20260506160203 | 51 | 22 | 4.0 | 10.0 | 0.00 | 0.00 | 0.00 | 36 | 1013.4 |
| 20260506160003 | 51 | 23 | 5.0 | 10.0 | 0.00 | 0.00 | 0.00 | 34 | 1013.4 |
| 20260506155824 | 51 | 19 | 5.0 | 10.0 | 0.00 | 0.00 | 0.00 | 33 | 1013.4 |
| 20260506155624 | 51 | 15 | 5.0 | 10.0 | 0.00 | 0.00 | 0.00 | 33 | 1013.4 |
| 20260506155403 | 51 | 26 | 5.0 | 9.0 | 0.00 | 0.00 | 0.00 | 34 | 1013.4 |
| 20260506155203 | 51 | 44 | 5.0 | 9.0 | 0.00 | 0.00 | 0.00 | 36 | 1013.4 |
| 20260506155003 | 51 | 53 | 5.0 | 10.0 | 0.00 | 0.00 | 0.00 | 36 | 1013.4 |
| 20260506154824 | 51 | 63 | 6.0 | 10.0 | 0.00 | 0.00 | 0.00 | 34 | 1013.4 |
| 20260506154603 | 50 | 73 | 6.0 | 10.0 | 0.00 | 0.00 | 0.00 | 33 | 1013.3 |
| 20260506154403 | 50 | 73 | 5.0 | 10.0 | 0.00 | 0.00 | 0.00 | 32 | 1013.3 |
| 20260506154224 | 50 | 67 | 5.0 | 10.0 | 0.00 | 0.00 | 0.00 | 33 | 1013.3 |
| 20260506154003 | 50 | 58 | 5.0 | 9.0 | 0.00 | 0.00 | 0.00 | 35 | 1013.3 |
| 20260506153803 | 51 | 62 | 5.0 | 8.0 | 0.00 | 0.00 | 0.00 | 34 | 1013.2 |
| 20260506153603 | 51 | 71 | 4.0 | 9.0 | 0.00 | 0.00 | 0.00 | 36 | 1013.2 |
| 20260506153403 | 50 | 79 | 4.0 | 9.0 | 0.00 | 0.00 | 0.00 | 37 | 1013.3 |
| 20260506153203 | 51 | 86 | 3.0 | 9.0 | 0.00 | 0.00 | 0.00 | 36 | 1013.3 |
| 20260506153003 | 51 | 93 | 3.0 | 9.0 | 0.00 | 0.00 | 0.00 | 36 | 1013.2 |
| 20260506152803 | 51 | 106 | 2.0 | 9.0 | 0.00 | 0.00 | 0.00 | 35 | 1013.2 |
| 20260506152603 | 51 | 115 | 2.0 | 7.0 | 0.00 | 0.00 | 0.00 | 35 | 1013.2 |
| 20260506152403 | 51 | 119 | 2.0 | 7.0 | 0.00 | 0.00 | 0.00 | 38 | 1013.2 |
| 20260506152224 | 51 | 110 | 3.0 | 8.0 | 0.00 | 0.00 | 0.00 | 36 | 1013.2 |
| 20260506152003 | 50 | 103 | 3.0 | 8.0 | 0.00 | 0.00 | 0.00 | 33 | 1013.1 |
| 20260506151803 | 50 | 93 | 3.0 | 8.0 | 0.00 | 0.00 | 0.00 | 36 | 1013.3 |
| 20260506151603 | 51 | 94 | 3.0 | 8.0 | 0.00 | 0.00 | 0.00 | 33 | 1013.3 |
| 20260506151403 | 51 | 88 | 2.0 | 8.0 | 0.00 | 0.00 | 0.00 | 39 | 1013.4 |
| 20260506151203 | 51 | 101 | 2.0 | 6.0 | 0.00 | 0.00 | 0.00 | 38 | 1013.4 |
| 20260506151003 | 51 | 108 | 2.0 | 5.0 | 0.00 | 0.00 | 0.00 | 37 | 1013.3 |
| 20260506150803 | 50 | 119 | 2.0 | 6.0 | 0.00 | 0.00 | 0.00 | 36 | 1013.3 |
| 20260506150603 | 50 | 111 | 2.0 | 6.0 | 0.00 | 0.00 | 0.00 | 36 | 1013.3 |
| 20260506150403 | 50 | 108 | 2.0 | 6.0 | 0.00 | 0.00 | 0.00 | 35 | 1013.2 |
| 20260506150203 | 50 | 110 | 3.0 | 6.0 | 0.00 | 0.00 | 0.00 | 36 | 1013.2 |
| 20260506150003 | 50 | 112 | 3.0 | 7.0 | 0.00 | 0.00 | 0.00 | 38 | 1013.1 |
| 20260506145824 | 50 | 105 | 3.0 | 7.0 | 0.00 | 0.01 | 0.00 | 38 | 1013.1 |
| 20260506145603 | 50 | 97 | 3.0 | 7.0 | 0.00 | 0.01 | 0.00 | 36 | 1013.2 |
| 20260506145403 | 50 | 90 | 4.0 | 7.0 | 0.00 | 0.01 | 0.00 | 35 | 1013.3 |
| 20260506145203 | 50 | 86 | 4.0 | 8.0 | 0.00 | 0.01 | 0.00 | 35 | 1013.2 |
| 20260506145003 | 50 | 81 | 4.0 | 8.0 | 0.00 | 0.01 | 0.00 | 36 | 1013.3 |
| 20260506144803 | 50 | 83 | 4.0 | 8.0 | 0.00 | 0.01 | 0.00 | 38 | 1013.2 |
| 20260506144603 | 50 | 86 | 4.0 | 8.0 | 0.00 | 0.01 | 0.00 | 38 | 1013.2 |
| 20260506144403 | 49 | 90 | 4.0 | 8.0 | 0.00 | 0.01 | 0.00 | 40 | 1013.2 |
| 20260506144203 | 49 | 93 | 4.0 | 7.0 | 0.00 | 0.01 | 0.00 | 37 | 1013.1 |
| 20260506144003 | 49 | 92 | 4.0 | 8.0 | 0.00 | 0.02 | 0.00 | 36 | 1013.1 |
| 20260506143803 | 49 | 90 | 3.0 | 8.0 | 0.00 | 0.02 | 0.00 | 37 | 1013.0 |
| 20260506143603 | 49 | 89 | 3.0 | 8.0 | 0.00 | 0.02 | 0.00 | 38 | 1013.0 |
| 20260506143403 | 49 | 89 | 3.0 | 8.0 | 0.00 | 0.02 | 0.00 | 37 | 1013.0 |
| 20260506143203 | 49 | 89 | 3.0 | 8.0 | 0.00 | 0.03 | 0.00 | 38 | 1013.0 |
| 20260506143003 | 49 | 93 | 3.0 | 7.0 | 0.00 | 0.03 | 0.00 | 37 | 1013.0 |
| 20260506142803 | 49 | 88 | 3.0 | 7.0 | 0.00 | 0.03 | 0.00 | 37 | 1013.0 |
| 20260506142603 | 49 | 79 | 4.0 | 7.0 | 0.00 | 0.03 | 0.00 | 37 | 1013.0 |
| 20260506142403 | 49 | 79 | 4.0 | 7.0 | 0.00 | 0.03 | 0.00 | 36 | 1013.0 |
| 20260506142203 | 49 | 80 | 4.0 | 8.0 | 0.00 | 0.03 | 0.00 | 37 | 1013.0 |
| 20260506142003 | 48 | 77 | 4.0 | 8.0 | 0.00 | 0.03 | 0.00 | 41 | 1013.0 |
| 20260506141803 | 48 | 72 | 5.0 | 8.0 | 0.00 | 0.03 | 0.00 | 42 | 1013.1 |
| 20260506141603 | 48 | 80 | 4.0 | 8.0 | 0.00 | 0.03 | 0.00 | 37 | 1013.1 |
| 20260506141403 | 48 | 81 | 4.0 | 8.0 | 0.00 | 0.03 | 0.00 | 37 | 1013.0 |
| 20260506141203 | 48 | 82 | 3.0 | 8.0 | 0.00 | 0.04 | 0.00 | 37 | 1013.0 |
| 20260506141003 | 48 | 92 | 3.0 | 7.0 | 0.00 | 0.04 | 0.00 | 37 | 1012.9 |
| 20260506140803 | 48 | 111 | 3.0 | 6.0 | 0.00 | 0.04 | 0.00 | 37 | 1012.9 |
| 20260506140603 | 48 | 108 | 3.0 | 6.0 | 0.00 | 0.04 | 0.00 | 38 | 1012.9 |
| 20260506140403 | 48 | 97 | 3.0 | 6.0 | 0.00 | 0.04 | 0.00 | 37 | 1012.7 |
| 20260506140203 | 48 | 96 | 3.0 | 6.0 | 0.00 | 0.04 | 0.00 | 38 | 1012.7 |
| 20260506140003 | 48 | 88 | 3.0 | 7.0 | 0.00 | 0.04 | 0.00 | 36 | 1012.7 |
| 20260506135803 | 48 | 87 | 3.0 | 7.0 | 0.00 | 0.04 | 0.00 | 39 | 1012.7 |
| 20260506135603 | 48 | 88 | 3.0 | 7.0 | 0.00 | 0.04 | 0.00 | 41 | 1012.8 |
| 20260506135404 | 48 | 103 | 3.0 | 7.0 | 0.00 | 0.04 | 0.00 | 42 | 1012.7 |
| 20260506135203 | 48 | 110 | 3.0 | 7.0 | 0.00 | 0.04 | 0.00 | 40 | 1012.7 |
| 20260506135003 | 48 | 109 | 3.0 | 7.0 | 0.00 | 0.04 | 0.00 | 40 | 1012.7 |
| 20260506134824 | 48 | 113 | 3.0 | 7.0 | 0.00 | 0.04 | 0.00 | 40 | 1012.7 |
| 20260506134603 | 48 | 110 | 3.0 | 8.0 | 0.00 | 0.04 | 0.00 | 37 | 1012.5 |
| 20260506134403 | 48 | 100 | 3.0 | 8.0 | 0.00 | 0.04 | 0.00 | 38 | 1012.5 |
| 20260506134203 | 48 | 94 | 3.0 | 8.0 | 0.00 | 0.04 | 0.00 | 38 | 1012.5 |
| 20260506134003 | 48 | 99 | 3.0 | 8.0 | 0.00 | 0.04 | 0.00 | 39 | 1012.4 |
| 20260506133803 | 47 | 116 | 3.0 | 8.0 | 0.00 | 0.04 | 0.00 | 38 | 1012.4 |
| 20260506133603 | 47 | 117 | 3.0 | 7.0 | 0.00 | 0.04 | 0.00 | 40 | 1012.4 |
| 20260506133424 | 47 | 119 | 3.0 | 8.0 | 0.00 | 0.04 | 0.00 | 39 | 1012.3 |
| 20260506133203 | 47 | 119 | 3.0 | 8.0 | 0.00 | 0.04 | 0.00 | 41 | 1012.4 |
| 20260506133003 | 47 | 110 | 3.0 | 8.0 | 0.00 | 0.04 | 0.00 | 41 | 1012.3 |
| 20260506132824 | 47 | 95 | 3.0 | 8.0 | 0.00 | 0.04 | 0.00 | 42 | 1012.3 |
| 20260506132603 | 47 | 93 | 3.0 | 8.0 | 0.00 | 0.04 | 0.00 | 45 | 1012.4 |
| 20260506132403 | 47 | 94 | 3.0 | 7.0 | 0.00 | 0.04 | 0.00 | 45 | 1012.3 |
| 20260506132203 | 46 | 95 | 4.0 | 8.0 | 0.00 | 0.04 | 0.00 | 43 | 1012.4 |
| 20260506132003 | 46 | 97 | 4.0 | 8.0 | 0.00 | 0.04 | 0.00 | 43 | 1012.4 |
| 20260506131803 | 46 | 96 | 3.0 | 8.0 | 0.00 | 0.04 | 0.00 | 43 | 1012.3 |
| 20260506131603 | 46 | 92 | 4.0 | 8.0 | 0.00 | 0.04 | 0.00 | 42 | 1012.3 |
| 20260506131403 | 46 | 93 | 4.0 | 8.0 | 0.00 | 0.04 | 0.00 | 43 | 1012.2 |
| 20260506131224 | 46 | 94 | 3.0 | 8.0 | 0.00 | 0.04 | 0.00 | 45 | 1012.2 |
| 20260506131024 | 46 | 92 | 4.0 | 8.0 | 0.00 | 0.04 | 0.00 | 46 | 1012.2 |
| 20260506130803 | 46 | 92 | 4.0 | 8.0 | 0.00 | 0.04 | 0.00 | 46 | 1012.3 |
| 20260506130624 | 46 | 92 | 4.0 | 8.0 | 0.00 | 0.04 | 0.00 | 45 | 1012.3 |
| 20260506130403 | 46 | 91 | 5.0 | 8.0 | 0.00 | 0.04 | 0.00 | 44 | 1012.3 |
| 20260506130203 | 46 | 92 | 4.0 | 8.0 | 0.00 | 0.04 | 0.00 | 46 | 1012.4 |
| 20260506130024 | 46 | 95 | 4.0 | 8.0 | 0.00 | 0.04 | 0.00 | 46 | 1012.3 |
| 20260506125803 | 46 | 95 | 4.0 | 9.0 | 0.00 | 0.04 | 0.00 | 46 | 1012.3 |
| 20260506125603 | 46 | 98 | 4.0 | 9.0 | 0.00 | 0.04 | 0.00 | 46 | 1012.3 |
| 20260506125403 | 46 | 97 | 4.0 | 9.0 | 0.00 | 0.04 | 0.00 | 46 | 1012.3 |
| 20260506125203 | 45 | 96 | 4.0 | 9.0 | 0.00 | 0.04 | 0.00 | 46 | 1012.3 |
| 20260506125024 | 45 | 94 | 3.0 | 9.0 | 0.00 | 0.04 | 0.00 | 47 | 1012.3 |
| 20260506124803 | 45 | 93 | 3.0 | 6.0 | 0.00 | 0.04 | 0.00 | 47 | 1012.3 |
| 20260506124624 | 45 | 92 | 3.0 | 7.0 | 0.00 | 0.04 | 0.00 | 46 | 1012.3 |
| 20260506124424 | 45 | 94 | 3.0 | 8.0 | 0.00 | 0.04 | 0.00 | 46 | 1012.3 |
| 20260506124224 | 45 | 95 | 3.0 | 8.0 | 0.00 | 0.04 | 0.00 | 47 | 1012.4 |
| 20260506124003 | 45 | 101 | 3.0 | 8.0 | 0.00 | 0.04 | 0.00 | 48 | 1012.3 |
| 20260506123803 | 45 | 103 | 3.0 | 8.0 | 0.00 | 0.04 | 0.00 | 48 | 1012.3 |
| 20260506123624 | 45 | 103 | 3.0 | 8.0 | 0.00 | 0.04 | 0.00 | 47 | 1012.2 |
| 20260506123403 | 45 | 104 | 3.0 | 8.0 | 0.00 | 0.04 | 0.00 | 49 | 1012.2 |
| 20260506123203 | 45 | 99 | 3.0 | 8.0 | 0.00 | 0.04 | 0.00 | 48 | 1012.1 |
| 20260506123003 | 44 | 92 | 3.0 | 8.0 | 0.00 | 0.04 | 0.00 | 49 | 1012.2 |
| 20260506122803 | 44 | 90 | 3.0 | 8.0 | 0.00 | 0.04 | 0.00 | 49 | 1012.2 |
| 20260506122624 | 44 | 89 | 3.0 | 8.0 | 0.00 | 0.04 | 0.00 | 49 | 1012.2 |
| 20260506122403 | 44 | 91 | 4.0 | 8.0 | 0.00 | 0.04 | 0.00 | 50 | 1012.1 |
| 20260506122203 | 44 | 91 | 4.0 | 8.0 | 0.00 | 0.04 | 0.00 | 49 | 1012.1 |
| 20260506122003 | 44 | 96 | 4.0 | 8.0 | 0.00 | 0.04 | 0.00 | 50 | 1012.1 |
| 20260506121803 | 44 | 97 | 4.0 | 8.0 | 0.00 | 0.04 | 0.00 | 50 | 1011.9 |
| 20260506121603 | 44 | 98 | 4.0 | 8.0 | 0.00 | 0.04 | 0.00 | 50 | 1011.9 |
| 20260506121403 | 43 | 97 | 4.0 | 8.0 | 0.00 | 0.04 | 0.00 | 51 | 1011.9 |
| 20260506121203 | 43 | 98 | 4.0 | 6.0 | 0.00 | 0.04 | 0.00 | 51 | 1011.9 |
| 20260506121003 | 43 | 95 | 4.0 | 7.0 | 0.00 | 0.04 | 0.00 | 52 | 1011.8 |
| 20260506120803 | 43 | 94 | 4.0 | 7.0 | 0.00 | 0.04 | 0.00 | 51 | 1011.8 |
| 20260506120603 | 43 | 91 | 4.0 | 7.0 | 0.00 | 0.04 | 0.00 | 51 | 1011.8 |
| 20260506120403 | 43 | 92 | 4.0 | 7.0 | 0.00 | 0.04 | 0.00 | 52 | 1011.7 |
| 20260506120224 | 43 | 93 | 4.0 | 7.0 | 0.00 | 0.04 | 0.00 | 52 | 1011.7 |
| 20260506120003 | 42 | 94 | 4.0 | 7.0 | 0.00 | 0.04 | 0.00 | 52 | 1011.6 |
| 20260506115803 | 42 | 97 | 4.0 | 7.0 | 0.00 | 0.04 | 0.00 | 52 | 1011.6 |
| 20260506115603 | 42 | 100 | 3.0 | 7.0 | 0.00 | 0.04 | 0.00 | 52 | 1011.6 |
| 20260506115403 | 42 | 100 | 3.0 | 6.0 | 0.00 | 0.04 | 0.00 | 53 | 1011.6 |
| 20260506115203 | 42 | 99 | 3.0 | 6.0 | 0.00 | 0.04 | 0.00 | 53 | 1011.6 |
| 20260506115003 | 42 | 98 | 4.0 | 6.0 | 0.00 | 0.04 | 0.00 | 53 | 1011.5 |
| 20260506114803 | 42 | 97 | 4.0 | 6.0 | 0.00 | 0.04 | 0.00 | 54 | 1011.5 |
| 20260506114624 | 42 | 96 | 4.0 | 7.0 | 0.00 | 0.04 | 0.00 | 54 | 1011.4 |
| 20260506114403 | 42 | 95 | 4.0 | 7.0 | 0.00 | 0.04 | 0.00 | 54 | 1011.4 |
| 20260506114203 | 42 | 93 | 3.0 | 7.0 | 0.00 | 0.04 | 0.00 | 54 | 1011.4 |
| 20260506114003 | 42 | 91 | 3.0 | 7.0 | 0.00 | 0.04 | 0.00 | 54 | 1011.4 |
| 20260506113803 | 41 | 92 | 3.0 | 7.0 | 0.00 | 0.04 | 0.00 | 54 | 1011.2 |
| 20260506113603 | 41 | 91 | 3.0 | 6.0 | 0.00 | 0.04 | 0.00 | 54 | 1011.1 |
| 20260506113403 | 41 | 92 | 3.0 | 6.0 | 0.00 | 0.04 | 0.00 | 54 | 1011.1 |
| 20260506113203 | 41 | 93 | 3.0 | 5.0 | 0.00 | 0.04 | 0.00 | 54 | 1011.1 |
| 20260506113003 | 41 | 93 | 3.0 | 5.0 | 0.00 | 0.04 | 0.00 | 54 | 1011.1 |
| 20260506112803 | 41 | 94 | 3.0 | 5.0 | 0.00 | 0.04 | 0.00 | 54 | 1011.1 |
| 20260506112603 | 41 | 94 | 3.0 | 5.0 | 0.00 | 0.04 | 0.00 | 54 | 1011.1 |
| 20260506112403 | 41 | 94 | 2.0 | 5.0 | 0.00 | 0.04 | 0.00 | 55 | 1011.1 |
| 20260506112203 | 41 | 95 | 2.0 | 5.0 | 0.00 | 0.04 | 0.00 | 55 | 1011.0 |
| 20260506112003 | 41 | 98 | 2.0 | 4.0 | 0.00 | 0.04 | 0.00 | 55 | 1011.0 |
| 20260506111803 | 41 | 98 | 2.0 | 4.0 | 0.00 | 0.04 | 0.00 | 55 | 1010.9 |
| 20260506111603 | 41 | 99 | 2.0 | 4.0 | 0.00 | 0.04 | 0.00 | 55 | 1010.9 |
| 20260506111403 | 41 | 98 | 2.0 | 4.0 | 0.00 | 0.04 | 0.00 | 55 | 1011.0 |
| 20260506111203 | 41 | 97 | 2.0 | 4.0 | 0.00 | 0.04 | 0.00 | 55 | 1010.9 |
| 20260506111003 | 41 | 95 | 2.0 | 4.0 | 0.00 | 0.04 | 0.00 | 55 | 1010.9 |
| 20260506110803 | 40 | 94 | 2.0 | 4.0 | 0.00 | 0.04 | 0.00 | 55 | 1010.8 |
| 20260506110603 | 40 | 92 | 2.0 | 4.0 | 0.00 | 0.04 | 0.00 | 55 | 1010.7 |
| 20260506110403 | 40 | 92 | 1.0 | 4.0 | 0.00 | 0.04 | 0.00 | 55 | 1010.8 |
| 20260506110224 | 40 | 90 | 1.0 | 4.0 | 0.00 | 0.04 | 0.00 | 55 | 1010.9 |
| 20260506110004 | 40 | 94 | 1.0 | 4.0 | 0.00 | 0.04 | 0.00 | 55 | 1010.9 |
| 20260506105803 | 40 | 93 | 2.0 | 4.0 | 0.00 | 0.04 | 0.00 | 57 | 1011.0 |
| 20260506105603 | 41 | 95 | 2.0 | 5.0 | 0.00 | 0.04 | 0.00 | 56 | 1010.9 |
| 20260506105403 | 41 | 96 | 2.0 | 5.0 | 0.00 | 0.04 | 0.00 | 56 | 1010.9 |
| 20260506105203 | 41 | 94 | 2.0 | 5.0 | 0.00 | 0.04 | 0.00 | 55 | 1010.9 |
| 20260506105003 | 41 | 90 | 2.0 | 5.0 | 0.00 | 0.04 | 0.00 | 55 | 1010.8 |
| 20260506104803 | 41 | 91 | 2.0 | 5.0 | 0.00 | 0.04 | 0.00 | 55 | 1010.8 |
| 20260506104624 | 41 | 92 | 2.0 | 5.0 | 0.00 | 0.04 | 0.00 | 55 | 1010.7 |
| 20260506104403 | 41 | 92 | 3.0 | 5.0 | 0.00 | 0.04 | 0.00 | 55 | 1010.6 |
| 20260506104203 | 41 | 96 | 3.0 | 6.0 | 0.00 | 0.04 | 0.00 | 55 | 1010.6 |
| 20260506104003 | 41 | 96 | 3.0 | 6.0 | 0.00 | 0.04 | 0.00 | 55 | 1010.7 |
| 20260506103824 | 41 | 99 | 3.0 | 6.0 | 0.00 | 0.04 | 0.00 | 54 | 1010.7 |
| 20260506103603 | 41 | 101 | 3.0 | 6.0 | 0.00 | 0.04 | 0.00 | 54 | 1010.6 |
| 20260506103424 | 41 | 101 | 3.0 | 6.0 | 0.00 | 0.04 | 0.00 | 54 | 1010.6 |
| 20260506103203 | 41 | 98 | 2.0 | 5.0 | 0.00 | 0.04 | 0.00 | 55 | 1010.6 |
| 20260506103003 | 41 | 99 | 2.0 | 5.0 | 0.00 | 0.04 | 0.00 | 55 | 1010.5 |
| 20260506102803 | 41 | 98 | 2.0 | 5.0 | 0.00 | 0.04 | 0.00 | 55 | 1010.5 |
| 20260506102603 | 41 | 96 | 2.0 | 5.0 | 0.00 | 0.04 | 0.00 | 55 | 1010.7 |
| 20260506102403 | 41 | 95 | 2.0 | 5.0 | 0.00 | 0.04 | 0.00 | 55 | 1010.6 |
| 20260506102224 | 41 | 95 | 2.0 | 5.0 | 0.00 | 0.04 | 0.00 | 55 | 1010.5 |
| 20260506102003 | 41 | 95 | 2.0 | 5.0 | 0.00 | 0.04 | 0.00 | 55 | 1010.5 |
| 20260506101803 | 41 | 92 | 3.0 | 5.0 | 0.00 | 0.04 | 0.00 | 55 | 1010.5 |
| 20260506101624 | 41 | 92 | 3.0 | 5.0 | 0.00 | 0.04 | 0.00 | 56 | 1010.5 |
| 20260506101424 | 41 | 93 | 3.0 | 5.0 | 0.00 | 0.04 | 0.00 | 56 | 1010.5 |
| 20260506101203 | 41 | 94 | 3.0 | 5.0 | 0.00 | 0.04 | 0.00 | 57 | 1010.5 |
| 20260506101003 | 41 | 94 | 3.0 | 5.0 | 0.00 | 0.04 | 0.00 | 55 | 1010.5 |
| 20260506100803 | 41 | 95 | 3.0 | 5.0 | 0.00 | 0.04 | 0.00 | 56 | 1010.5 |
| 20260506100603 | 41 | 94 | 3.0 | 5.0 | 0.00 | 0.04 | 0.00 | 56 | 1010.4 |
| 20260506100403 | 41 | 97 | 3.0 | 5.0 | 0.00 | 0.04 | 0.00 | 57 | 1010.4 |
| 20260506100203 | 40 | 98 | 3.0 | 5.0 | 0.00 | 0.04 | 0.00 | 57 | 1010.3 |
| 20260506100003 | 40 | 98 | 2.0 | 5.0 | 0.00 | 0.04 | 0.00 | 58 | 1010.3 |
| 20260506095803 | 40 | 99 | 2.0 | 5.0 | 0.00 | 0.04 | 0.00 | 59 | 1010.3 |
| 20260506095603 | 40 | 101 | 1.0 | 5.0 | 0.00 | 0.04 | 0.00 | 60 | 1010.3 |
| 20260506095403 | 40 | 92 | 1.0 | 4.0 | 0.00 | 0.04 | 0.00 | 61 | 1010.3 |
| 20260506095203 | 39 | 92 | 0.0 | 4.0 | 0.00 | 0.04 | 0.00 | 61 | 1010.4 |
| 20260506095024 | 39 | 78 | 0.0 | 3.0 | 0.00 | 0.04 | 0.00 | 61 | 1010.3 |
| 20260506094803 | 39 | 0 | 0.0 | 0.0 | 0.00 | 0.04 | 0.00 | 62 | 1010.4 |
| 20260506094603 | 39 | 0 | 0.0 | 0.0 | 0.00 | 0.04 | 0.00 | 62 | 1010.4 |
| 20260506094403 | 39 | 0 | 0.0 | 0.0 | 0.00 | 0.04 | 0.00 | 62 | 1010.3 |
| 20260506094203 | 39 | 0 | 0.0 | 0.0 | 0.00 | 0.04 | 0.00 | 62 | 1010.5 |
| 20260506094003 | 39 | 0 | 0.0 | 0.0 | 0.00 | 0.04 | 0.00 | 62 | 1010.4 |
| 20260506093803 | 39 | 0 | 0.0 | 0.0 | 0.00 | 0.04 | 0.00 | 62 | 1010.5 |
| 20260506093624 | 40 | 0 | 0.0 | 0.0 | 0.00 | 0.04 | 0.00 | 62 | 1010.5 |
| 20260506093424 | 40 | 0 | 0.0 | 0.0 | 0.00 | 0.04 | 0.00 | 62 | 1010.4 |
| 20260506093203 | 40 | 0 | 0.0 | 0.0 | 0.00 | 0.04 | 0.00 | 61 | 1010.4 |
| 20260506093003 | 40 | 0 | 0.0 | 0.0 | 0.00 | 0.04 | 0.00 | 60 | 1010.4 |
| 20260506092803 | 40 | 0 | 0.0 | 0.0 | 0.00 | 0.04 | 0.00 | 61 | 1010.4 |
| 20260506092624 | 40 | 0 | 0.0 | 0.0 | 0.00 | 0.04 | 0.00 | 60 | 1010.3 |
| 20260506092424 | 40 | 0 | 0.0 | 0.0 | 0.00 | 0.04 | 0.00 | 60 | 1010.3 |
| 20260506092203 | 40 | 0 | 0.0 | 0.0 | 0.00 | 0.04 | 0.00 | 60 | 1010.4 |
| 20260506092003 | 41 | 0 | 0.0 | 0.0 | 0.00 | 0.04 | 0.00 | 60 | 1010.4 |
| 20260506091803 | 41 | 85 | 0.0 | 1.0 | 0.00 | 0.04 | 0.00 | 59 | 1010.4 |
| 20260506091603 | 41 | 85 | 0.0 | 2.0 | 0.00 | 0.04 | 0.00 | 58 | 1010.3 |
| 20260506091403 | 41 | 85 | 0.0 | 2.0 | 0.00 | 0.04 | 0.00 | 58 | 1010.3 |
| 20260506091203 | 42 | 85 | 0.0 | 2.0 | 0.00 | 0.04 | 0.00 | 57 | 1010.2 |
| 20260506091003 | 42 | 85 | 0.0 | 3.0 | 0.00 | 0.04 | 0.00 | 57 | 1010.2 |
| 20260506090803 | 42 | 85 | 0.0 | 3.0 | 0.00 | 0.04 | 0.00 | 57 | 1010.1 |
| 20260506090603 | 42 | 86 | 1.0 | 3.0 | 0.00 | 0.04 | 0.00 | 56 | 1010.1 |
| 20260506090424 | 42 | 85 | 1.0 | 3.0 | 0.00 | 0.04 | 0.00 | 56 | 1010.1 |
| 20260506090203 | 43 | 84 | 1.0 | 3.0 | 0.00 | 0.04 | 0.00 | 55 | 1010.0 |
| 20260506090003 | 43 | 82 | 1.0 | 3.0 | 0.00 | 0.04 | 0.00 | 54 | 1010.0 |
| 20260506085824 | 43 | 81 | 1.0 | 3.0 | 0.00 | 0.04 | 0.00 | 53 | 1009.9 |
| 20260506085603 | 43 | 79 | 1.0 | 3.0 | 0.00 | 0.04 | 0.00 | 53 | 1009.9 |
| 20260506085403 | 43 | 77 | 1.0 | 3.0 | 0.00 | 0.04 | 0.00 | 53 | 1009.9 |
| 20260506085203 | 43 | 75 | 1.0 | 3.0 | 0.00 | 0.04 | 0.00 | 53 | 1009.9 |
| 20260506085003 | 44 | 76 | 1.0 | 3.0 | 0.00 | 0.04 | 0.00 | 52 | 1009.8 |
| 20260506084803 | 44 | 86 | 1.0 | 5.0 | 0.00 | 0.04 | 0.00 | 52 | 1009.7 |
| 20260506084603 | 44 | 92 | 1.0 | 5.0 | 0.00 | 0.04 | 0.00 | 51 | 1009.7 |
| 20260506084403 | 44 | 94 | 1.0 | 5.0 | 0.00 | 0.04 | 0.00 | 51 | 1009.8 |
| 20260506084203 | 44 | 100 | 1.0 | 5.0 | 0.00 | 0.04 | 0.00 | 51 | 1009.8 |
| 20260506084003 | 44 | 103 | 2.0 | 5.0 | 0.00 | 0.04 | 0.00 | 51 | 1009.8 |
| 20260506083803 | 44 | 104 | 2.0 | 4.0 | 0.00 | 0.04 | 0.00 | 51 | 1009.7 |
| 20260506083603 | 44 | 102 | 2.0 | 4.0 | 0.00 | 0.04 | 0.00 | 51 | 1009.6 |
| 20260506083403 | 44 | 103 | 2.0 | 4.0 | 0.00 | 0.04 | 0.00 | 51 | 1009.7 |
| 20260506083224 | 44 | 104 | 2.0 | 4.0 | 0.00 | 0.04 | 0.00 | 51 | 1009.6 |
| 20260506083004 | 44 | 99 | 2.0 | 4.0 | 0.00 | 0.04 | 0.00 | 51 | 1009.6 |
| 20260506082803 | 44 | 95 | 2.0 | 6.0 | 0.00 | 0.04 | 0.00 | 51 | 1009.6 |
| 20260506082603 | 44 | 95 | 2.0 | 6.0 | 0.00 | 0.04 | 0.00 | 50 | 1009.6 |
| 20260506082403 | 44 | 95 | 2.0 | 6.0 | 0.00 | 0.04 | 0.00 | 51 | 1009.7 |
| 20260506082203 | 45 | 96 | 3.0 | 6.0 | 0.00 | 0.04 | 0.00 | 50 | 1009.7 |
| 20260506082003 | 45 | 97 | 3.0 | 6.0 | 0.00 | 0.04 | 0.00 | 50 | 1009.6 |
| 20260506081803 | 45 | 97 | 3.0 | 5.0 | 0.00 | 0.04 | 0.00 | 50 | 1009.6 |
| 20260506081603 | 45 | 100 | 3.0 | 5.0 | 0.00 | 0.04 | 0.00 | 51 | 1009.6 |
| 20260506081403 | 45 | 97 | 3.0 | 5.0 | 0.00 | 0.04 | 0.00 | 50 | 1009.7 |
| 20260506081203 | 45 | 93 | 3.0 | 5.0 | 0.00 | 0.04 | 0.00 | 51 | 1009.7 |
| 20260506081003 | 45 | 94 | 3.0 | 5.0 | 0.00 | 0.04 | 0.00 | 51 | 1009.6 |
| 20260506080804 | 45 | 97 | 3.0 | 5.0 | 0.00 | 0.04 | 0.00 | 50 | 1009.5 |
| 20260506080603 | 45 | 92 | 3.0 | 6.0 | 0.00 | 0.04 | 0.00 | 50 | 1009.4 |
| 20260506080403 | 45 | 93 | 3.0 | 6.0 | 0.00 | 0.04 | 0.00 | 51 | 1009.5 |
| 20260506080203 | 45 | 95 | 3.0 | 6.0 | 0.00 | 0.04 | 0.00 | 50 | 1009.6 |
| 20260506073403 | 46 | 98 | 2.0 | 7.0 | 0.00 | 0.04 | 0.00 | 50 | 1009.7 |
| 20260506073203 | 46 | 100 | 2.0 | 5.0 | 0.00 | 0.04 | 0.00 | 49 | 1009.8 |
| 20260506073003 | 46 | 101 | 2.0 | 5.0 | 0.00 | 0.04 | 0.00 | 49 | 1009.8 |
| 20260506072803 | 46 | 98 | 2.0 | 7.0 | 0.00 | 0.04 | 0.00 | 50 | 1009.8 |
| 20260506072603 | 46 | 100 | 3.0 | 7.0 | 0.00 | 0.04 | 0.00 | 50 | 1009.7 |
| 20260506072403 | 46 | 97 | 3.0 | 7.0 | 0.00 | 0.04 | 0.00 | 49 | 1009.6 |
| 20260506072203 | 46 | 94 | 3.0 | 7.0 | 0.00 | 0.04 | 0.00 | 49 | 1009.6 |
| 20260506072003 | 46 | 96 | 4.0 | 7.0 | 0.00 | 0.04 | 0.00 | 49 | 1009.5 |
| 20260506071803 | 46 | 98 | 4.0 | 7.0 | 0.00 | 0.04 | 0.00 | 50 | 1009.6 |
| 20260506071624 | 46 | 96 | 3.0 | 7.0 | 0.00 | 0.04 | 0.00 | 49 | 1009.7 |
| 20260506071403 | 46 | 100 | 3.0 | 7.0 | 0.00 | 0.04 | 0.00 | 50 | 1009.7 |
| 20260506071203 | 46 | 102 | 3.0 | 7.0 | 0.00 | 0.04 | 0.00 | 50 | 1009.8 |
| 20260506071003 | 46 | 100 | 3.0 | 7.0 | 0.00 | 0.04 | 0.00 | 50 | 1009.8 |
| 20260506070803 | 46 | 99 | 4.0 | 8.0 | 0.00 | 0.04 | 0.00 | 51 | 1009.9 |
| 20260506070603 | 46 | 102 | 4.0 | 8.0 | 0.00 | 0.04 | 0.00 | 51 | 1009.8 |
| 20260506070424 | 46 | 101 | 4.0 | 8.0 | 0.00 | 0.04 | 0.00 | 51 | 1009.8 |
| 20260506070203 | 46 | 98 | 4.0 | 8.0 | 0.00 | 0.04 | 0.00 | 51 | 1009.8 |
| 20260506062424 | 46 | 101 | 1.0 | 3.0 | 0.00 | 0.04 | 0.00 | 54 | 1009.7 |
| 20260506062203 | 46 | 101 | 1.0 | 3.0 | 0.00 | 0.04 | 0.00 | 54 | 1009.8 |
| 20260506062003 | 46 | 101 | 0.0 | 3.0 | 0.00 | 0.04 | 0.00 | 55 | 1009.8 |
| 20260506061824 | 46 | 101 | 1.0 | 3.0 | 0.00 | 0.04 | 0.00 | 56 | 1009.7 |
| 20260506061603 | 46 | 101 | 1.0 | 3.0 | 0.00 | 0.04 | 0.00 | 56 | 1009.8 |
| 20260506061424 | 46 | 100 | 1.0 | 3.0 | 0.00 | 0.04 | 0.00 | 55 | 1009.8 |
| 20260506061203 | 46 | 100 | 1.0 | 3.0 | 0.00 | 0.04 | 0.00 | 55 | 1009.8 |
| 20260506061024 | 46 | 100 | 1.0 | 3.0 | 0.00 | 0.04 | 0.00 | 55 | 1009.8 |
| 20260506060824 | 46 | 100 | 1.0 | 3.0 | 0.00 | 0.04 | 0.00 | 55 | 1009.9 |
| 20260506060603 | 46 | 100 | 1.0 | 3.0 | 0.00 | 0.04 | 0.00 | 55 | 1009.9 |
| 20260506060403 | 46 | 99 | 1.0 | 3.0 | 0.00 | 0.04 | 0.00 | 56 | 1009.9 |
| 20260506060203 | 46 | 99 | 1.0 | 3.0 | 0.00 | 0.04 | 0.00 | 56 | 1009.9 |
| 20260506051403 | 45 | 0 | 0.0 | 0.0 | 0.00 | 0.04 | 0.00 | 62 | 1010.0 |
| 20260506051203 | 45 | 0 | 0.0 | 0.0 | 0.00 | 0.04 | 0.00 | 63 | 1010.0 |
| 20260506051003 | 45 | 0 | 0.0 | 0.0 | 0.00 | 0.04 | 0.00 | 63 | 1009.9 |
| 20260506050803 | 45 | 0 | 0.0 | 0.0 | 0.00 | 0.04 | 0.00 | 63 | 1010.0 |
| 20260506050603 | 46 | 0 | 0.0 | 0.0 | 0.00 | 0.04 | 0.00 | 63 | 1009.9 |
| 20260506050403 | 46 | 0 | 0.0 | 0.0 | 0.00 | 0.04 | 0.00 | 63 | 1009.9 |
| 20260506050203 | 46 | 0 | 0.0 | 0.0 | 0.00 | 0.04 | 0.00 | 63 | 1009.9 |
| 20260506045024 | 46 | 0 | 0.0 | 0.0 | 0.00 | 0.04 | 0.00 | 62 | 1009.9 |
| 20260506044803 | 46 | 0 | 0.0 | 0.0 | 0.00 | 0.04 | 0.00 | 62 | 1009.7 |
| 20260506044624 | 46 | 0 | 0.0 | 0.0 | 0.00 | 0.04 | 0.00 | 62 | 1009.7 |
| 20260506044424 | 46 | 0 | 0.0 | 0.0 | 0.00 | 0.04 | 0.00 | 62 | 1009.7 |
| 20260506044203 | 46 | 0 | 0.0 | 0.0 | 0.00 | 0.04 | 0.00 | 64 | 1009.6 |
| 20260506044003 | 46 | 0 | 0.0 | 0.0 | 0.00 | 0.04 | 0.00 | 64 | 1009.4 |
| 20260506043824 | 46 | 0 | 0.0 | 0.0 | 0.00 | 0.04 | 0.00 | 63 | 1009.4 |
| 20260506043603 | 46 | 0 | 0.0 | 0.0 | 0.00 | 0.04 | 0.00 | 63 | 1009.4 |
| 20260506043403 | 46 | 0 | 0.0 | 0.0 | 0.00 | 0.04 | 0.00 | 63 | 1009.5 |
| 20260506043203 | 46 | 0 | 0.0 | 0.0 | 0.00 | 0.04 | 0.00 | 62 | 1009.5 |
| 20260506043003 | 46 | 0 | 0.0 | 0.0 | 0.00 | 0.04 | 0.00 | 61 | 1009.4 |
| 20260506042824 | 46 | 0 | 0.0 | 0.0 | 0.00 | 0.04 | 0.00 | 60 | 1009.4 |
| 20260506042603 | 46 | 0 | 0.0 | 0.0 | 0.00 | 0.04 | 0.00 | 60 | 1009.3 |
| 20260506042403 | 46 | 0 | 0.0 | 0.0 | 0.00 | 0.04 | 0.00 | 60 | 1009.3 |
| 20260506042203 | 46 | 0 | 0.0 | 0.0 | 0.00 | 0.04 | 0.00 | 60 | 1009.3 |
| 20260506042003 | 46 | 0 | 0.0 | 0.0 | 0.00 | 0.04 | 0.00 | 61 | 1009.3 |
| 20260506041803 | 46 | 0 | 0.0 | 0.0 | 0.00 | 0.04 | 0.00 | 62 | 1009.3 |
| 20260506041603 | 46 | 0 | 0.0 | 0.0 | 0.00 | 0.04 | 0.00 | 63 | 1009.3 |
| 20260506041424 | 46 | 0 | 0.0 | 0.0 | 0.00 | 0.04 | 0.00 | 62 | 1009.3 |
| 20260506041203 | 46 | 0 | 0.0 | 0.0 | 0.00 | 0.04 | 0.00 | 63 | 1009.3 |
| 20260506041024 | 46 | 0 | 0.0 | 0.0 | 0.00 | 0.04 | 0.00 | 63 | 1009.4 |
| 20260506040803 | 46 | 0 | 0.0 | 0.0 | 0.00 | 0.04 | 0.00 | 62 | 1009.5 |
| 20260506040603 | 46 | 0 | 0.0 | 0.0 | 0.00 | 0.04 | 0.00 | 61 | 1009.6 |
| 20260506040403 | 46 | 0 | 0.0 | 0.0 | 0.00 | 0.04 | 0.00 | 61 | 1009.6 |
| 20260506040203 | 46 | 0 | 0.0 | 0.0 | 0.00 | 0.04 | 0.00 | 62 | 1009.6 |
| 20260506040004 | 46 | 0 | 0.0 | 0.0 | 0.00 | 0.04 | 0.00 | 63 | 1009.7 |
| 20260506035803 | 46 | 0 | 0.0 | 0.0 | 0.00 | 0.04 | 0.04 | 64 | 1009.6 |
| 20260506035603 | 46 | 0 | 0.0 | 0.0 | 0.00 | 0.04 | 0.04 | 64 | 1009.6 |
| 20260506035424 | 46 | 0 | 0.0 | 0.0 | 0.00 | 0.04 | 0.04 | 64 | 1009.7 |
| 20260506035203 | 46 | 0 | 0.0 | 0.0 | 0.00 | 0.04 | 0.04 | 64 | 1009.6 |
| 20260506035003 | 46 | 0 | 0.0 | 0.0 | 0.00 | 0.04 | 0.04 | 63 | 1009.7 |
| 20260506034803 | 46 | 0 | 0.0 | 0.0 | 0.00 | 0.04 | 0.04 | 63 | 1009.7 |
| 20260506034624 | 46 | 0 | 0.0 | 0.0 | 0.00 | 0.04 | 0.04 | 62 | 1009.7 |
| 20260506034424 | 46 | 0 | 0.0 | 0.0 | 0.00 | 0.04 | 0.04 | 62 | 1009.7 |
| 20260506034224 | 46 | 0 | 0.0 | 0.0 | 0.00 | 0.04 | 0.04 | 63 | 1009.6 |
| 20260506034024 | 46 | 0 | 0.0 | 0.0 | 0.00 | 0.04 | 0.04 | 63 | 1009.6 |
| 20260506033803 | 46 | 0 | 0.0 | 0.0 | 0.00 | 0.04 | 0.04 | 63 | 1009.5 |
| 20260506033603 | 46 | 0 | 0.0 | 0.0 | 0.00 | 0.04 | 0.04 | 62 | 1009.5 |
| 20260506033403 | 46 | 0 | 0.0 | 0.0 | 0.00 | 0.04 | 0.04 | 61 | 1009.5 |
| 20260506033203 | 46 | 0 | 0.0 | 0.0 | 0.00 | 0.04 | 0.04 | 60 | 1009.5 |
| 20260506033003 | 47 | 0 | 0.0 | 0.0 | 0.00 | 0.04 | 0.04 | 61 | 1009.5 |
| 20260506032803 | 47 | 0 | 0.0 | 0.0 | 0.00 | 0.04 | 0.04 | 62 | 1009.5 |
| 20260506032603 | 47 | 0 | 0.0 | 0.0 | 0.00 | 0.04 | 0.04 | 62 | 1009.4 |
| 20260506032403 | 47 | 0 | 0.0 | 0.0 | 0.00 | 0.04 | 0.04 | 61 | 1009.4 |
| 20260506032203 | 47 | 0 | 0.0 | 0.0 | 0.00 | 0.04 | 0.04 | 62 | 1009.4 |
| 20260506032003 | 47 | 0 | 0.0 | 0.0 | 0.00 | 0.04 | 0.04 | 63 | 1009.4 |
| 20260506031803 | 47 | 0 | 0.0 | 0.0 | 0.00 | 0.04 | 0.04 | 63 | 1009.4 |
| 20260506031603 | 47 | 0 | 0.0 | 0.0 | 0.00 | 0.04 | 0.04 | 62 | 1009.4 |
| 20260506031424 | 47 | 0 | 0.0 | 0.0 | 0.00 | 0.04 | 0.04 | 62 | 1009.5 |
| 20260506031203 | 47 | 0 | 0.0 | 0.0 | 0.00 | 0.04 | 0.04 | 62 | 1009.4 |
| 20260506031003 | 47 | 0 | 0.0 | 0.0 | 0.00 | 0.05 | 0.04 | 62 | 1009.4 |
| 20260506030803 | 47 | 0 | 0.0 | 0.0 | 0.00 | 0.05 | 0.04 | 62 | 1009.4 |
| 20260506030603 | 47 | 0 | 0.0 | 0.0 | 0.00 | 0.05 | 0.04 | 62 | 1009.4 |
| 20260506030403 | 48 | 0 | 0.0 | 0.0 | 0.00 | 0.05 | 0.04 | 62 | 1009.4 |
| 20260506030203 | 48 | 0 | 0.0 | 0.0 | 0.00 | 0.05 | 0.04 | 63 | 1009.3 |
| 20260506030003 | 48 | 0 | 0.0 | 0.0 | 0.00 | 0.05 | 0.04 | 63 | 1009.2 |
| 20260506025803 | 48 | 0 | 0.0 | 0.0 | 0.00 | 0.05 | 0.04 | 63 | 1009.2 |
| 20260506025603 | 48 | 0 | 0.0 | 0.0 | 0.00 | 0.05 | 0.04 | 63 | 1009.2 |
| 20260506025403 | 48 | 0 | 0.0 | 0.0 | 0.00 | 0.05 | 0.04 | 63 | 1009.2 |
| 20260506025203 | 48 | 0 | 0.0 | 0.0 | 0.00 | 0.05 | 0.04 | 63 | 1009.3 |
| 20260506025024 | 47 | 0 | 0.0 | 0.0 | 0.00 | 0.05 | 0.04 | 63 | 1009.3 |
| 20260506024803 | 47 | 0 | 0.0 | 0.0 | 0.00 | 0.05 | 0.04 | 62 | 1009.3 |
| 20260506024603 | 47 | 0 | 0.0 | 0.0 | 0.00 | 0.05 | 0.04 | 61 | 1009.3 |
| 20260506024403 | 47 | 0 | 0.0 | 0.0 | 0.00 | 0.06 | 0.04 | 60 | 1009.3 |
| 20260506024203 | 47 | 0 | 0.0 | 0.0 | 0.00 | 0.06 | 0.04 | 60 | 1009.3 |
| 20260506024003 | 47 | 0 | 0.0 | 0.0 | 0.00 | 0.07 | 0.04 | 60 | 1009.2 |
| 20260506023824 | 47 | 0 | 0.0 | 0.0 | 0.00 | 0.08 | 0.04 | 61 | 1009.3 |
| 20260506023603 | 47 | 0 | 0.0 | 0.0 | 0.00 | 0.09 | 0.04 | 61 | 1009.2 |
| 20260506023403 | 48 | 0 | 0.0 | 0.0 | 0.00 | 0.10 | 0.04 | 60 | 1009.3 |
| 20260506023203 | 48 | 0 | 0.0 | 0.0 | 0.00 | 0.11 | 0.04 | 59 | 1009.3 |
| 20260506023003 | 48 | 0 | 0.0 | 0.0 | 0.00 | 0.12 | 0.04 | 60 | 1009.2 |
| 20260506022803 | 48 | 0 | 0.0 | 0.0 | 0.00 | 0.13 | 0.04 | 60 | 1009.1 |
| 20260506022603 | 48 | 0 | 0.0 | 0.0 | 0.00 | 0.14 | 0.04 | 60 | 1009.2 |
| 20260506022403 | 48 | 0 | 0.0 | 0.0 | 0.00 | 0.15 | 0.04 | 60 | 1009.2 |
| 20260506022203 | 48 | 0 | 0.0 | 0.0 | 0.00 | 0.16 | 0.04 | 60 | 1009.2 |
| 20260506022003 | 48 | 0 | 0.0 | 0.0 | 0.00 | 0.17 | 0.04 | 60 | 1009.2 |
| 20260506021803 | 48 | 0 | 0.0 | 0.0 | 0.00 | 0.19 | 0.04 | 60 | 1009.3 |
| 20260506021603 | 48 | 0 | 0.0 | 0.0 | 0.00 | 0.19 | 0.04 | 60 | 1009.2 |
| 20260506021403 | 48 | 0 | 0.0 | 0.0 | 0.00 | 0.21 | 0.04 | 60 | 1009.2 |
| 20260506021203 | 49 | 0 | 0.0 | 0.0 | 0.00 | 0.21 | 0.04 | 59 | 1009.1 |
| 20260506021003 | 49 | 0 | 0.0 | 0.0 | 0.00 | 0.23 | 0.04 | 59 | 1009.1 |
| 20260506020803 | 49 | 0 | 0.0 | 0.0 | 0.00 | 0.23 | 0.04 | 59 | 1009.1 |
| 20260506020603 | 48 | 0 | 0.0 | 0.0 | 0.00 | 0.23 | 0.04 | 57 | 1009.1 |
| 20260506020403 | 48 | 0 | 0.0 | 0.0 | 0.00 | 0.23 | 0.04 | 57 | 1009.1 |
| 20260506020203 | 49 | 0 | 0.0 | 0.0 | 0.00 | 0.23 | 0.04 | 58 | 1009.1 |
| 20260506020004 | 48 | 0 | 0.0 | 0.0 | 0.00 | 0.23 | 0.04 | 59 | 1009.0 |
| 20260506015803 | 48 | 0 | 0.0 | 0.0 | 0.00 | 0.23 | 0.04 | 59 | 1009.0 |
| 20260506015603 | 48 | 0 | 0.0 | 0.0 | 0.00 | 0.24 | 0.04 | 59 | 1009.0 |
| 20260506015425 | 48 | 0 | 0.0 | 0.0 | 0.00 | 0.24 | 0.04 | 58 | 1009.0 |
| 20260506015203 | 48 | 0 | 0.0 | 0.0 | 0.00 | 0.24 | 0.04 | 58 | 1009.0 |
| 20260506015003 | 48 | 0 | 0.0 | 0.0 | 0.00 | 0.24 | 0.04 | 58 | 1009.0 |
| 20260506014803 | 48 | 0 | 0.0 | 0.0 | 0.00 | 0.24 | 0.04 | 58 | 1008.9 |
| 20260506014603 | 48 | 0 | 0.0 | 0.0 | 0.00 | 0.24 | 0.04 | 57 | 1008.9 |
| 20260506014424 | 48 | 0 | 0.0 | 0.0 | 0.00 | 0.24 | 0.04 | 56 | 1008.9 |
| 20260506014203 | 48 | 0 | 0.0 | 0.0 | 0.00 | 0.24 | 0.04 | 55 | 1008.9 |
| 20260506014003 | 48 | 0 | 0.0 | 0.0 | 0.00 | 0.24 | 0.04 | 56 | 1008.9 |
| 20260506013803 | 48 | 0 | 0.0 | 0.0 | 0.00 | 0.24 | 0.04 | 55 | 1008.9 |
| 20260506013609 | 48 | 0 | 0.0 | 0.0 | 0.00 | 0.24 | 0.04 | 54 | 1008.9 |
| 20260506013423 | 48 | 0 | 0.0 | 0.0 | 0.00 | 0.24 | 0.04 | 54 | 1008.7 |
| 20260506013203 | 49 | 0 | 0.0 | 0.0 | 0.00 | 0.24 | 0.04 | 54 | 1008.6 |
| 20260506013005 | 49 | 0 | 0.0 | 0.0 | 0.00 | 0.24 | 0.04 | 55 | 1008.6 |
| 20260506012804 | 49 | 0 | 0.0 | 0.0 | 0.00 | 0.24 | 0.04 | 57 | 1008.7 |
| 20260506012604 | 49 | 0 | 0.0 | 0.0 | 0.00 | 0.24 | 0.04 | 58 | 1008.7 |
| 20260506012403 | 49 | 0 | 0.0 | 0.0 | 0.00 | 0.24 | 0.04 | 58 | 1008.7 |
| 20260506012203 | 49 | 0 | 0.0 | 0.0 | 0.00 | 0.24 | 0.04 | 58 | 1008.6 |
| 20260506012003 | 49 | 0 | 0.0 | 0.0 | 0.00 | 0.24 | 0.04 | 58 | 1008.7 |
| 20260506011803 | 49 | 0 | 0.0 | 0.0 | 0.00 | 0.24 | 0.04 | 57 | 1008.7 |
| 20260506011624 | 49 | 0 | 0.0 | 0.0 | 0.00 | 0.24 | 0.04 | 56 | 1008.6 |
| 20260506011403 | 49 | 0 | 0.0 | 0.0 | 0.00 | 0.24 | 0.04 | 55 | 1008.6 |
| 20260506011203 | 49 | 0 | 0.0 | 0.0 | 0.00 | 0.24 | 0.04 | 55 | 1008.5 |
| 20260506011003 | 49 | 0 | 0.0 | 0.0 | 0.00 | 0.24 | 0.04 | 54 | 1008.6 |
| 20260506010803 | 49 | 0 | 0.0 | 0.0 | 0.00 | 0.24 | 0.04 | 55 | 1008.6 |
| 20260506010603 | 49 | 0 | 0.0 | 0.0 | 0.00 | 0.24 | 0.04 | 53 | 1008.5 |
| 20260506010403 | 49 | 0 | 0.0 | 0.0 | 0.00 | 0.24 | 0.04 | 52 | 1008.5 |
| 20260506010203 | 49 | 0 | 0.0 | 0.0 | 0.00 | 0.24 | 0.04 | 51 | 1008.5 |
| 20260506010003 | 49 | 0 | 0.0 | 0.0 | 0.00 | 0.24 | 0.04 | 53 | 1008.5 |
| 20260506005803 | 49 | 0 | 0.0 | 0.0 | 0.00 | 0.24 | 0.04 | 54 | 1008.5 |
| 20260506005603 | 50 | 0 | 0.0 | 0.0 | 0.00 | 0.24 | 0.04 | 56 | 1008.5 |
| 20260506005403 | 50 | 0 | 0.0 | 0.0 | 0.00 | 0.24 | 0.04 | 55 | 1008.5 |
| 20260506005203 | 50 | 0 | 0.0 | 0.0 | 0.00 | 0.24 | 0.04 | 55 | 1008.6 |
| 20260506005024 | 50 | 0 | 0.0 | 0.0 | 0.00 | 0.24 | 0.04 | 54 | 1008.6 |
| 20260506004803 | 50 | 0 | 0.0 | 0.0 | 0.00 | 0.24 | 0.04 | 50 | 1008.5 |
| 20260506004603 | 50 | 0 | 0.0 | 0.0 | 0.00 | 0.24 | 0.04 | 50 | 1008.4 |
| 20260506004403 | 50 | 0 | 0.0 | 0.0 | 0.00 | 0.24 | 0.04 | 51 | 1008.5 |
| 20260506004203 | 50 | 0 | 0.0 | 0.0 | 0.00 | 0.24 | 0.04 | 49 | 1008.5 |
| 20260506004003 | 50 | 0 | 0.0 | 0.0 | 0.00 | 0.24 | 0.04 | 50 | 1008.6 |
| 20260506003803 | 50 | 0 | 0.0 | 0.0 | 0.00 | 0.24 | 0.04 | 44 | 1008.4 |
| 20260506003603 | 50 | 0 | 0.0 | 0.0 | 0.00 | 0.24 | 0.04 | 43 | 1008.5 |
| 20260506003403 | 50 | 0 | 0.0 | 0.0 | 0.00 | 0.25 | 0.04 | 44 | 1008.5 |
| 20260506003203 | 50 | 0 | 0.0 | 0.0 | 0.00 | 0.25 | 0.04 | 43 | 1008.4 |
| 20260506003003 | 50 | 58 | 0.0 | 2.0 | 0.00 | 0.25 | 0.04 | 43 | 1008.4 |
| 20260506002803 | 50 | 58 | 0.0 | 2.0 | 0.00 | 0.25 | 0.04 | 43 | 1008.4 |
| 20260506002603 | 50 | 58 | 0.0 | 2.0 | 0.00 | 0.25 | 0.04 | 43 | 1008.5 |
| 20260506002403 | 50 | 58 | 0.0 | 2.0 | 0.00 | 0.25 | 0.04 | 43 | 1008.5 |
| 20260506002224 | 50 | 58 | 0.0 | 2.0 | 0.00 | 0.25 | 0.04 | 44 | 1008.7 |
| 20260506002003 | 50 | 57 | 0.0 | 2.0 | 0.00 | 0.25 | 0.04 | 42 | 1008.6 |
| 20260506001803 | 50 | 57 | 0.0 | 2.0 | 0.00 | 0.25 | 0.04 | 42 | 1008.6 |
| 20260506001624 | 50 | 57 | 0.0 | 2.0 | 0.00 | 0.25 | 0.04 | 42 | 1008.6 |
| 20260506001403 | 50 | 57 | 0.0 | 2.0 | 0.00 | 0.25 | 0.04 | 43 | 1008.6 |
| 20260506001203 | 50 | 0 | 0.0 | 0.0 | 0.00 | 0.25 | 0.04 | 44 | 1008.6 |
| 20260506001003 | 50 | 0 | 0.0 | 0.0 | 0.00 | 0.25 | 0.04 | 46 | 1008.6 |
| 20260506000824 | 50 | 0 | 0.0 | 0.0 | 0.00 | 0.25 | 0.04 | 46 | 1008.6 |
| 20260506000603 | 50 | 0 | 0.0 | 0.0 | 0.00 | 0.25 | 0.04 | 48 | 1008.6 |
| 20260506000403 | 50 | 0 | 0.0 | 0.0 | 0.00 | 0.25 | 0.04 | 51 | 1008.6 |
| 20260506000204 | 50 | 0 | 0.0 | 0.0 | 0.00 | 0.25 | 0.04 | 50 | 1008.7 |
| 20260506000024 | 50 | 0 | 0.0 | 0.0 | 0.00 | 0.25 | 0.04 | 50 | 1008.7 |
| 20260505235803 | 50 | 0 | 0.0 | 0.0 | 0.00 | 0.25 | 0.04 | 50 | 1008.8 |
| 20260505235603 | 50 | 0 | 0.0 | 0.0 | 0.00 | 0.25 | 0.04 | 49 | 1008.8 |
| 20260505235403 | 50 | 0 | 0.0 | 0.0 | 0.00 | 0.25 | 0.04 | 49 | 1008.7 |
| 20260505235203 | 50 | 0 | 0.0 | 0.0 | 0.00 | 0.25 | 0.04 | 49 | 1008.7 |
| 20260505235024 | 50 | 0 | 0.0 | 0.0 | 0.00 | 0.25 | 0.04 | 48 | 1008.7 |
| 20260505234803 | 50 | 0 | 0.0 | 0.0 | 0.00 | 0.25 | 0.04 | 46 | 1008.7 |
| 20260505234603 | 50 | 0 | 0.0 | 0.0 | 0.00 | 0.25 | 0.04 | 47 | 1008.6 |
| 20260505234403 | 50 | 0 | 0.0 | 0.0 | 0.00 | 0.25 | 0.04 | 48 | 1008.6 |
| 20260505234203 | 50 | 0 | 0.0 | 0.0 | 0.00 | 0.25 | 0.04 | 44 | 1008.6 |
| 20260505234024 | 50 | 0 | 0.0 | 0.0 | 0.00 | 0.25 | 0.04 | 47 | 1008.5 |
| 20260505233803 | 50 | 0 | 0.0 | 0.0 | 0.00 | 0.25 | 0.04 | 47 | 1008.6 |
| 20260505233624 | 50 | 0 | 0.0 | 0.0 | 0.00 | 0.25 | 0.04 | 48 | 1008.6 |
| 20260505233403 | 49 | 0 | 0.0 | 0.0 | 0.00 | 0.25 | 0.04 | 47 | 1008.6 |
| 20260505233203 | 49 | 0 | 0.0 | 0.0 | 0.00 | 0.25 | 0.04 | 49 | 1008.6 |
| 20260505233003 | 49 | 39 | 0.0 | 1.0 | 0.00 | 0.25 | 0.04 | 49 | 1008.6 |
| 20260505232803 | 50 | 39 | 0.0 | 2.0 | 0.00 | 0.25 | 0.04 | 49 | 1008.6 |
| 20260505232603 | 50 | 39 | 0.0 | 2.0 | 0.00 | 0.25 | 0.04 | 49 | 1008.6 |
| 20260505232403 | 50 | 39 | 0.0 | 2.0 | 0.00 | 0.25 | 0.04 | 48 | 1008.7 |